Location: Rehoboth Beach
(38.7438°N, 75.1341°W)
Time: 11:21:25
(UTC-05:00)

Cosmos 1452 Rocket - Visible Passes

Search period start: 23 February 2017 00:00
Search period end: 05 March 2017 00:00
Orbit: 767 x 775 km, 74.1° (Epoch: 22 February)

Date Brightness Start Highest point End Pass type
(mag) Time Alt. Az. Time Alt. Az. Time Alt. Az.
23 Feb 5.4 04:04:16 10° SSE 04:08:42 28° E 04:13:08 10° NE visible
23 Feb 4.2 05:45:56 10° SW 05:50:40 33° WNW 05:55:27 10° N visible
24 Feb 6.1 03:30:10 11° SE 03:32:55 16° E 03:36:07 10° ENE visible
24 Feb 3.6 05:10:36 17° SW 05:14:31 55° WNW 05:19:43 10° N visible
25 Feb 3.4 04:36:33 41° SSW 04:38:27 87° ESE 04:43:46 10° NNE visible
26 Feb 4.2 04:02:10 50° ESE 04:02:29 51° ESE 04:07:36 10° NNE visible
26 Feb 4.9 05:42:34 15° W 05:44:55 20° WNW 05:48:44 10° NNW visible
27 Feb 5.3 03:27:35 28° E 03:27:35 28° E 03:31:09 10° NE visible
27 Feb 4.2 05:07:57 30° WNW 05:08:38 31° WNW 05:13:20 10° N visible
28 Feb 6.2 02:52:49 14° ENE 02:52:49 14° ENE 02:54:12 10° NE visible
28 Feb 3.8 04:33:11 48° NW 04:33:11 48° NW 04:37:37 10° N visible
01 Mar 4.5 03:58:18 41° NNE 03:58:18 41° NNE 04:01:42 10° NNE visible
01 Mar 5.4 05:38:39 11° WNW 05:39:17 11° NW 05:41:01 10° NW visible
02 Mar 5.4 03:23:19 25° NE 03:23:19 25° NE 03:25:34 10° NNE visible
02 Mar 5.1 05:03:40 18° NW 05:03:40 18° NW 05:06:34 10° NNW visible
03 Mar 6.2 02:48:16 14° NE 02:48:16 14° NE 02:49:09 10° NE visible
03 Mar 5.0 04:28:37 23° NNW 04:28:37 23° NNW 04:31:13 10° N visible
04 Mar 5.2 03:53:29 23° N 03:53:29 23° N 03:55:32 10° N visible
